Vorticity
6 7 8 9 8 10 7 9 10 6 7 8 10 13 19 11 5 5 -1 1 5 7 2 2 5 7 9 2 -3 2 12 11 10 1 -23 -14 -2 8 19 7 4 4 4 7 6 6 4 4 4 3 4 3 3 3 3 4 5 5 5 6 6 6 5 4 4 5 5 6 7 8 8 8 7 7 7 7 8 8 7 7 8 9 8 6 4 5 4 3 3 3 3 4 6 8 8 7 4
5 4 6 7 7 9 8 9 9 7 9 13 12 13 21 13 2 -4 -2 12 10 -0 0 4 7 14 14 3 4 4 2 6 13 5 -7 -1 -2 3 10 8 10 5 4 6 5 5 3 5 4 4 5 4 4 5 6 6 6 5 5 6 6 6 5 6 5 5 5 6 7 7 8 8 8 7 7 7 7 8 8 8 8 8 8 6 4 5 6 4 3 3 2 2 5 8 8 8 5
5 5 6 6 8 8 9 8 10 9 6 12 8 5 11 8 9 11 20 19 -2 -4 9 12 5 6 11 8 4 2 5 9 10 7 4 5 3 1 -4 0 12 8 4 6 5 5 7 6 4 6 5 3 3 5 6 6 6 6 6 6 6 6 5 6 6 5 5 6 6 7 8 8 8 8 7 7 8 9 8 9 8 8 8 7 5 4 6 5 4 4 3 1 3 6 8 9 6
5 7 6 6 9 6 7 7 10 8 8 13 1 13 26 13 15 12 6 1 -10 -0 16 17 4 1 8 5 -0 2 9 11 7 5 5 7 10 7 -0 3 8 4 4 4 4 4 4 3 3 4 1 1 2 4 4 4 5 6 8 8 7 6 6 6 6 6 4 5 6 6 7 8 8 8 7 8 9 10 9 8 8 8 7 7 7 5 5 5 4 4 5 3 2 5 7 9 8
6 8 7 8 8 4 8 9 11 9 14 18 -5 5 17 -4 1 1 -11 -5 3 7 10 10 5 6 11 6 3 7 8 8 9 8 7 6 8 7 5 8 5 3 5 2 2 4 3 3 4 1 0 3 4 4 4 5 6 7 9 10 9 6 6 7 6 6 5 4 5 6 7 8 8 8 8 8 9 10 10 9 7 6 6 5 7 8 6 5 4 4 5 5 3 5 6 7 8
8 9 7 9 8 6 10 7 8 10 14 23 3 -11 3 1 -8 -8 -9 -6 -8 -11 -3 8 10 5 7 8 5 8 7 6 7 5 8 10 8 6 4 5 6 5 4 4 5 6 4 2 3 2 4 3 4 4 5 6 7 8 8 9 9 6 6 7 7 6 6 4 5 6 7 8 8 8 8 9 9 9 10 10 8 5 5 4 5 7 8 8 5 3 3 5 4 5 5 6 9
8 8 9 10 9 9 9 6 7 11 10 22 16 -21 -6 26 13 2 0 2 3 4 17 20 12 1 3 10 7 7 7 2 3 2 7 11 7 10 13 7 6 7 5 8 9 5 3 3 4 4 4 3 4 5 6 6 7 8 7 8 8 7 7 5 6 6 5 4 5 6 7 10 9 10 9 9 8 8 9 10 10 8 5 4 4 5 7 11 11 7 2 2 4 6 6 7 8
10 8 10 9 7 10 7 11 11 13 12 13 15 -13 -14 5 7 11 7 13 24 20 23 20 12 5 0 6 10 10 7 4 3 6 7 5 4 8 10 5 4 7 8 8 5 3 4 5 5 3 3 4 6 7 7 7 6 6 6 7 8 8 9 8 7 7 7 6 6 5 5 9 10 10 10 9 8 7 8 9 10 10 9 7 6 4 3 5 10 12 8 2 2 4 7 9 7
11 9 10 9 8 10 7 12 10 12 17 2 4 15 13 -5 -12 0 -0 0 5 1 7 13 13 10 5 6 10 7 5 5 4 8 8 6 6 3 0 4 5 3 5 5 4 6 5 3 3 3 4 5 7 9 8 7 7 6 6 7 9 10 9 10 10 10 9 7 5 5 6 8 10 11 11 9 8 6 6 6 6 7 8 9 9 9 6 3 2 8 12 7 3 1 4 9 8
12 12 9 11 9 11 11 12 12 17 27 13 -0 13 15 1 -4 -2 -4 -7 -6 3 14 15 8 5 9 8 5 8 8 4 7 8 7 12 8 3 2 4 5 4 4 3 3 3 1 2 4 4 5 7 7 8 8 7 8 8 9 10 10 11 10 10 11 11 10 7 5 5 7 8 9 11 12 10 8 6 6 4 4 5 6 7 8 9 11 10 5 2 7 9 8 5 3 5 9
12 13 10 13 9 11 12 12 17 11 19 25 3 -7 3 7 7 5 3 5 5 4 6 10 9 7 6 3 0 3 6 6 25 23 6 7 3 6 10 5 3 4 6 3 3 2 1 1 2 5 5 7 7 6 7 6 9 11 11 11 11 10 10 10 10 10 8 7 6 7 8 8 8 10 12 10 8 6 5 4 4 5 5 6 6 6 9 13 13 8 5 7 8 8 7 5 7
13 12 12 12 10 12 10 12 10 -11 -6 24 19 0 13 23 20 27 24 14 14 9 4 6 5 6 1 2 5 3 4 10 34 33 13 13 10 7 2 4 6 2 3 2 2 0 2 4 1 4 5 6 7 6 6 7 7 6 8 9 12 11 9 10 10 9 7 6 7 8 8 8 7 8 11 10 8 6 5 5 4 5 6 6 5 5 7 10 13 13 10 8 8 6 8 8 8
11 10 12 9 11 11 8 8 -2 0 6 8 12 -3 -0 14 10 25 33 13 8 2 6 20 10 7 8 2 5 7 7 7 12 4 5 17 11 7 3 8 10 2 -1 -1 7 4 1 7 7 6 7 8 7 8 8 8 8 6 7 6 9 10 8 9 7 7 7 7 6 6 8 8 8 7 10 9 7 6 6 5 4 5 6 5 4 4 7 9 10 12 12 9 9 7 5 9 10
10 9 9 7 11 8 10 8 -10 15 22 -11 -5 -8 -12 4 -3 5 24 18 12 -4 -5 26 23 6 4 3 5 3 -0 7 5 -6 14 26 7 7 8 5 5 5 6 -0 2 4 1 3 7 9 7 10 9 9 9 8 10 7 4 5 8 8 6 6 6 7 6 7 7 6 7 7 8 8 9 8 7 7 7 6 4 5 6 6 5 5 7 9 9 9 11 9 9 8 6 8 10
12 10 9 7 11 9 12 10 -5 9 6 -7 9 4 -1 8 6 9 18 14 14 10 -7 -1 11 12 9 5 8 3 -4 5 4 2 20 15 -4 6 11 10 10 9 15 9 0 4 8 3 6 10 6 9 9 8 10 9 8 5 5 7 8 6 4 5 6 8 6 7 8 8 9 9 8 8 7 7 7 7 7 6 3 4 5 6 5 6 8 9 10 8 9 9 8 8 9 9 11
11 7 9 8 10 13 12 4 5 17 4 3 13 -0 2 7 9 13 13 11 10 16 12 -1 -5 8 16 7 9 9 3 4 0 3 3 -22 -32 -7 8 9 6 0 1 0 2 8 10 8 8 11 9 7 7 8 9 9 7 6 8 6 3 3 3 5 7 8 7 8 8 9 9 9 8 6 5 5 7 9 8 7 4 4 4 6 6 7 10 10 10 8 7 8 8 8 8 10 11
8 8 9 10 11 9 11 6 -0 11 8 12 22 12 2 -9 -3 12 13 14 13 10 16 25 13 2 8 5 10 15 11 9 3 3 2 -13 -19 -6 -0 1 16 29 20 5 5 5 1 7 9 8 10 8 7 9 7 8 9 8 9 8 6 4 3 6 6 7 9 10 10 10 10 10 10 8 7 4 5 7 7 7 6 5 6 7 8 9 10 10 8 8 8 7 9 10 9 10 12
8 10 8 10 13 8 10 13 1 4 7 5 17 19 15 10 13 24 19 12 18 5 -13 -1 10 3 5 0 -1 6 9 12 9 5 5 6 9 8 6 10 17 17 19 16 11 6 0 4 5 2 5 8 9 8 7 10 9 8 9 9 7 6 6 7 7 8 9 9 9 12 13 12 9 7 6 6 6 6 7 9 7 6 8 9 9 10 9 9 9 8 9 9 9 11 10 9 11
9 6 10 9 10 17 9 0 -3 4 8 -1 -5 -5 7 15 11 13 12 13 19 12 -5 -8 2 5 6 4 -2 -3 -0 6 10 7 2 5 9 5 5 12 -1 -18 1 19 14 9 6 4 4 4 7 9 9 7 7 9 7 7 8 7 7 9 8 7 8 8 9 9 8 11 14 12 10 8 6 7 9 7 7 9 8 7 10 11 9 8 9 9 10 9 10 9 8 9 12 12 10
11 5 11 12 14 23 4 -3 9 14 11 -2 -15 -20 -10 -3 -2 5 7 14 14 9 10 6 11 12 5 4 3 1 2 8 7 1 10 21 14 1 3 11 0 -8 -0 5 9 12 6 4 7 9 13 12 10 8 7 8 6 6 6 7 8 9 8 8 7 8 11 10 8 10 13 13 11 10 9 11 12 10 8 10 11 9 7 9 8 6 7 8 9 8 8 9 6 5 8 11 11
10 7 8 13 15 11 -4 0 9 16 26 15 -8 -14 2 6 6 14 8 10 12 11 17 18 23 17 8 8 8 9 5 8 3 2 28 35 10 -3 6 14 14 11 -3 -12 0 9 5 7 11 10 9 9 8 7 7 8 7 6 6 5 8 10 8 7 5 7 9 8 8 9 10 13 12 12 13 12 13 11 9 10 10 10 10 10 9 7 6 7 6 5 6 8 7 6 6 7 10
8 6 8 13 6 -5 -5 -5 -21 -12 21 26 11 4 8 6 4 12 10 11 11 8 8 17 32 24 16 11 6 12 8 9 4 9 29 6 -18 3 23 21 15 12 -0 -4 4 6 7 7 9 10 4 4 6 6 6 7 8 9 8 6 8 7 5 6 9 10 6 5 9 8 8 12 11 8 6 6 9 9 8 10 11 12 11 9 7 6 7 6 5 5 6 7 7 7 6 7 9
7 6 7 12 7 -1 1 1 -9 -4 13 15 12 8 7 7 11 14 11 9 9 6 -9 -15 -3 3 15 15 7 12 10 12 8 13 8 -34 -19 44 55 21 0 5 7 8 12 11 9 8 11 12 8 6 6 7 6 7 9 10 8 11 11 5 4 7 11 10 5 7 10 10 10 8 8 6 3 4 5 6 7 10 13 13 10 12 12 10 9 7 7 7 7 8 8 7 6 7 10
6 10 8 9 6 1 2 7 9 10 14 14 10 8 10 11 10 10 10 9 6 8 6 -4 -13 -14 8 22 18 16 13 15 17 19 -2 -22 22 54 28 8 5 11 14 10 11 12 10 10 12 8 8 8 6 7 6 7 9 10 10 10 8 4 8 9 9 9 8 9 7 10 12 8 14 17 9 4 2 5 8 6 7 7 9 15 17 13 10 8 8 8 9 10 10 9 9 8 10
5 10 8 7 5 3 6 8 9 9 12 12 10 11 13 10 6 5 8 13 13 10 11 13 5 -5 1 11 12 8 7 11 16 15 -3 9 37 2 -30 -1 14 5 7 9 7 10 9 7 8 6 8 10 9 10 8 6 5 6 8 8 9 9 10 9 7 9 12 11 7 11 13 8 13 16 8 3 3 6 6 4 5 3 3 5 4 7 8 6 5 7 10 10 9 9 9 10 9
5 8 7 6 6 9 11 8 7 8 11 11 11 11 9 10 10 8 6 6 11 13 10 10 13 8 1 5 8 5 7 9 12 12 9 26 17 -27 -17 16 12 4 10 11 7 8 8 8 9 10 10 9 9 9 9 9 7 7 7 7 14 13 9 8 7 8 11 10 6 8 10 9 13 14 10 7 8 8 4 3 6 5 5 3 1 4 7 7 6 7 7 8 9 8 6 9 9
8 9 10 7 4 6 10 9 6 5 7 8 8 6 7 13 11 8 10 9 8 11 13 11 13 14 6 9 10 8 15 11 7 17 33 36 -12 -43 -3 16 5 10 10 8 10 7 7 9 8 9 10 10 9 8 7 5 6 9 12 12 12 11 8 9 9 7 9 9 9 8 8 10 9 9 11 6 6 8 7 6 5 4 4 5 4 3 4 6 8 5 4 8 14 15 10 7 8
7 8 12 11 6 6 6 6 6 6 8 8 5 4 7 10 7 6 7 5 7 9 9 9 13 13 11 12 9 8 14 12 6 17 44 43 -1 -22 -3 6 5 8 5 7 9 6 7 8 6 8 9 12 13 14 13 9 5 3 8 11 8 11 11 7 8 9 10 10 11 10 9 12 7 5 9 8 4 4 5 6 4 5 4 3 4 4 3 5 5 3 4 8 12 16 17 11 8
7 9 8 8 8 7 6 6 6 3 5 7 4 5 7 4 1 5 9 3 4 8 4 9 17 16 18 17 14 11 10 18 18 21 40 29 8 10 7 4 5 2 5 8 5 4 9 9 6 7 8 11 15 16 15 13 11 5 5 5 2 9 10 5 10 11 7 8 10 9 7 10 9 5 4 2 2 4 6 3 1 6 6 4 5 4 4 4 4 4 5 4 2 5 13 16 12
11 13 10 10 10 8 9 7 5 7 11 8 4 9 15 19 16 8 6 4 2 6 6 9 14 14 17 16 18 19 11 24 33 28 20 -6 -11 3 -2 2 8 4 6 4 3 3 5 9 7 7 8 8 12 14 13 10 10 9 8 6 3 5 4 4 12 14 12 14 13 13 13 12 9 7 3 -1 -2 3 7 2 -1 6 8 7 7 5 5 5 5 5 5 3 1 1 4 11 14
10 12 12 11 11 20 26 15 7 11 14 7 4 12 13 15 18 7 6 13 9 8 10 8 8 11 9 7 14 15 12 23 26 10 -17 -32 -12 1 -6 1 5 6 8 3 6 5 4 9 8 9 10 6 8 11 12 11 9 7 6 7 6 5 3 3 8 10 12 11 5 7 11 9 6 6 8 5 0 2 7 6 5 9 10 11 9 7 6 6 6 6 6 6 4 2 0 3 10
10 11 12 17 26 27 14 5 14 20 16 11 8 12 13 5 -1 2 10 14 13 13 15 9 4 8 6 8 15 10 14 15 -2 -11 -15 -15 -4 0 3 4 2 8 6 2 8 7 6 9 10 13 10 6 8 9 11 12 11 9 8 8 7 7 6 5 3 -1 -0 2 3 5 5 2 2 4 6 7 3 3 7 8 8 8 9 11 9 8 7 6 7 8 7 6 6 3 1 2 5
14 17 15 19 26 15 -1 -3 13 27 22 14 20 17 10 12 5 1 6 -1 -3 2 8 12 8 4 5 13 19 12 15 10 -9 -2 13 6 -7 -5 6 0 -0 8 2 3 10 8 9 11 13 14 10 8 8 9 11 12 12 11 9 9 9 8 7 6 6 3 0 3 7 8 5 3 3 1 2 3 3 7 10 10 11 10 10 9 8 9 7 8 9 9 9 7 7 3 2 6 4
14 15 19 18 4 -1 8 4 3 27 27 8 31 35 1 7 12 -8 -5 -2 -6 -8 -3 9 8 2 6 11 8 2 6 6 -2 6 13 6 -5 2 9 1 2 7 4 11 12 9 11 9 9 11 10 9 8 9 10 9 10 10 9 10 11 10 10 8 8 8 6 6 6 7 7 7 6 4 3 1 2 6 8 9 9 10 11 9 9 10 10 12 10 9 12 10 7 6 6 6 4
12 2 11 12 -1 3 6 4 6 19 23 3 15 32 1 -1 19 13 15 9 -2 4 11 12 6 -0 -0 2 3 4 9 9 4 7 10 5 -1 4 9 4 7 10 12 14 9 9 9 6 7 7 8 7 7 8 7 8 8 6 7 8 10 11 11 11 9 10 11 9 7 8 9 9 7 5 4 2 3 5 5 7 8 8 8 8 9 10 10 11 9 9 11 9 7 8 7 4 5
16 0 6 1 6 21 3 6 15 -4 12 27 19 23 5 -10 10 31 37 26 13 15 16 14 13 9 -0 -2 4 5 7 8 6 7 7 4 3 8 7 3 10 15 13 11 9 9 6 6 7 6 8 7 7 8 6 6 6 7 7 6 9 9 9 12 10 11 12 12 11 8 9 10 7 5 3 3 3 4 5 5 6 7 7 7 8 8 9 8 8 9 7 7 8 8 6 6 8
8 -11 4 6 12 22 -1 -5 3 -11 -2 13 13 13 3 -1 1 2 14 27 28 16 9 13 12 9 4 2 3 -1 -1 2 5 8 8 9 10 11 9 6 11 12 8 9 9 8 6 7 6 6 9 8 8 9 8 7 7 9 10 7 7 5 6 11 12 12 12 13 14 12 10 9 7 5 3 3 5 5 5 4 5 7 6 6 7 7 8 7 8 9 8 11 12 12 12 8 7
-0 -19 -1 11 9 13 10 -1 -3 9 -0 -13 13 15 -3 17 14 -10 1 18 16 4 6 11 6 7 5 3 4 -1 -0 3 4 6 5 7 4 7 12 8 11 13 9 11 10 7 8 7 6 8 8 8 9 9 9 9 7 9 12 12 10 8 8 9 11 13 13 13 13 13 13 10 8 5 3 4 6 5 5 5 5 6 6 6 6 7 8 8 8 8 9 11 9 10 16 12 7
1 -8 6 10 4 7 14 9 -2 8 11 13 38 18 -8 18 16 -6 -2 1 1 2 7 7 7 17 11 6 10 4 3 4 1 1 2 6 4 11 17 9 15 19 6 6 8 6 7 6 7 8 7 9 9 8 10 10 9 9 10 13 13 11 9 9 10 10 12 14 13 13 13 12 10 8 7 6 5 6 6 6 6 6 7 6 7 7 7 7 8 8 8 8 6 8 13 13 11
5 5 15 6 4 11 5 7 4 -8 -6 6 10 -7 -6 10 2 2 3 -7 -3 4 9 7 5 17 15 8 10 8 6 2 0 3 6 10 7 12 16 8 15 11 -3 4 7 3 4 4 6 6 6 9 8 8 9 8 11 10 9 12 14 12 10 8 9 8 9 11 12 13 12 11 11 9 8 7 5 6 6 7 8 7 8 7 8 8 7 7 6 7 7 7 10 10 9 10 12
7 5 12 2 -6 6 3 4 16 8 1 7 5 2 13 5 -8 14 24 4 -3 3 10 10 4 9 13 10 11 13 12 5 5 7 7 7 6 10 6 4 9 2 6 18 7 0 4 2 4 6 6 8 7 7 8 9 10 9 8 10 11 11 10 9 9 8 8 9 10 11 10 11 11 10 10 9 9 9 8 8 8 8 8 7 7 7 8 8 6 7 8 8 9 9 8 9 12
7 4 10 6 -9 -3 3 2 15 21 14 12 11 9 14 13 6 12 15 3 2 12 15 14 13 9 8 11 11 15 19 13 7 7 10 7 7 10 6 13 12 -1 15 20 -5 -5 4 1 4 6 5 7 7 6 7 11 11 10 9 9 10 11 10 9 9 9 9 9 9 9 10 10 10 10 10 9 9 9 8 9 9 9 9 8 8 7 6 7 8 8 7 7 8 8 9 9 9
8 5 7 9 3 3 -1 -8 -3 5 8 4 3 7 4 11 18 10 10 17 14 13 7 9 20 12 5 7 5 7 13 13 5 1 6 3 3 9 8 14 6 -3 17 8 -17 -6 5 2 4 4 4 5 5 4 6 10 9 10 11 10 11 11 10 10 9 9 9 8 9 10 11 11 11 11 10 10 10 10 10 10 10 10 9 9 9 8 7 7 7 8 7 8 9 8 9 10 11
7 3 5 7 9 10 -0 -7 -8 -10 -2 -2 -3 7 -1 -6 2 -0 11 19 6 4 4 5 18 19 14 13 8 5 4 10 13 8 3 -3 -1 5 6 12 8 11 20 -2 -14 1 2 2 4 3 5 3 4 4 4 7 4 7 12 9 10 11 11 11 10 10 10 8 9 9 9 9 10 11 11 12 12 12 11 10 10 10 10 10 10 10 10 8 8 9 10 10 9 10 11 11 12
15 6 4 6 9 15 10 8 12 6 6 10 10 14 9 6 7 4 9 4 -11 -3 3 0 11 17 14 13 11 11 11 11 11 9 6 2 4 3 5 14 10 7 1 -13 -3 7 0 4 5 2 5 2 3 4 3 6 2 3 7 3 5 10 10 11 12 13 12 11 10 9 9 9 9 10 11 12 12 13 13 12 12 12 11 11 10 11 10 9 10 10 11 11 10 11 11 11 12
13 8 7 10 8 12 12 6 10 12 8 9 12 10 8 9 13 14 10 4 6 13 10 7 11 5 -4 -2 1 5 7 3 0 5 8 11 13 6 3 7 -0 -8 -12 -10 6 7 1 6 4 3 5 2 3 3 3 4 1 3 7 5 6 9 11 13 13 13 12 12 12 11 10 9 9 10 10 11 11 11 12 12 12 11 12 12 11 11 11 10 12 11 11 11 11 12 11 11 12
10 12 13 16 10 7 9 5 5 9 7 8 9 9 9 5 10 19 10 5 12 12 7 8 5 -3 -6 1 9 5 -1 2 9 14 11 8 7 3 2 5 2 -0 0 3 8 5 3 5 3 3 3 2 3 3 3 3 2 5 9 12 14 13 15 15 13 13 12 12 13 12 11 10 11 11 11 12 11 11 11 11 11 12 11 12 12 12 11 11 12 12 12 12 12 14 13 13 12
8 12 11 11 11 8 6 7 8 6 5 10 12 14 17 11 10 18 11 3 7 11 14 13 7 5 4 9 17 11 1 3 6 6 5 3 3 4 4 3 3 5 8 10 7 5 4 3 3 3 2 4 3 2 4 2 4 11 13 15 16 13 15 15 14 14 12 11 12 11 11 11 11 12 11 11 11 12 11 10 10 10 10 11 12 12 12 12 12 12 11 11 12 13 14 13 13
8 12 12 7 4 5 7 9 12 13 11 13 16 17 16 13 12 17 14 2 -0 7 9 2 1 4 4 8 10 5 4 6 5 6 8 8 8 10 8 6 7 6 7 8 5 5 3 2 4 3 1 4 3 3 3 -0 6 17 16 15 14 8 7 10 12 13 13 11 11 10 10 10 11 11 11 11 11 12 12 12 11 11 11 11 10 10 10 11 11 12 11 11 11 12 13 13 13
22 12 12 14 9 7 10 12 12 14 16 13 13 10 5 5 9 15 19 13 6 6 2 -3 -0 1 2 7 5 5 11 13 13 14 12 10 9 10 11 10 9 7 6 6 6 6 2 4 10 6 1 1 3 4 0 1 14 20 14 13 13 5 1 5 9 10 11 10 10 10 9 9 9 9 8 8 9 9 9 11 11 11 11 11 11 10 9 8 9 10 10 10 11 11 12 12 11
28 22 13 12 13 10 9 12 11 10 14 14 11 10 11 15 14 2 -0 8 10 8 7 9 13 13 12 11 8 10 12 12 14 15 14 14 11 11 13 13 9 8 8 8 8 6 2 7 12 14 12 3 2 6 1 5 18 17 10 10 11 7 2 5 9 11 12 11 11 11 10 10 10 10 10 8 7 8 8 8 9 10 11 11 11 10 9 9 9 10 10 10 10 10 11 12 10
20 24 17 9 9 14 10 7 5 -0 1 5 3 4 6 10 14 5 -5 0 3 0 4 8 9 10 9 8 7 8 7 8 10 9 11 13 13 15 17 17 14 12 12 11 11 8 7 8 9 16 19 8 5 10 8 17 23 12 8 10 8 8 5 4 8 10 11 11 10 11 10 11 11 11 12 11 10 9 8 8 8 8 9 10 10 9 9 9 9 10 11 11 12 11 11 12 12
-2 3 16 17 11 10 10 11 12 7 6 7 5 4 1 0 5 3 -0 3 3 4 10 9 6 6 6 7 10 12 13 13 9 7 8 9 10 13 15 17 18 16 16 16 15 15 15 15 14 17 17 11 14 16 11 17 18 7 6 10 8 7 5 5 7 6 7 7 7 7 7 8 10 11 11 11 12 12 11 11 10 9 9 9 8 8 7 7 8 8 9 10 11 11 11 12 13
2 2 11 19 22 17 9 7 10 11 13 12 9 9 10 11 9 7 11 14 12 12 15 15 15 15 15 13 12 14 15 14 13 13 10 9 9 10 12 14 14 14 14 15 16 16 15 17 17 15 15 16 17 17 13 9 7 7 8 9 7 6 4 6 7 6 4 3 4 5 7 8 8 8 9 9 8 8 9 8 8 9 9 9 9 8 7 6 6 5 5 6 7 8 9 9 10
5 2 -6 -5 10 17 11 7 6 9 11 10 10 11 13 13 9 9 13 12 8 9 9 13 15 12 15 18 13 9 10 11 14 14 12 11 12 12 12 13 13 12 10 12 14 11 11 15 15 10 15 21 13 8 13 8 2 7 10 8 7 5 5 7 6 6 5 5 8 10 9 9 8 7 7 8 8 9 10 10 10 10 10 10 9 8 8 7 6 6 5 4 4 4 4 4 5
13 15 6 -5 -1 3 2 4 5 6 7 7 8 8 11 14 12 11 8 3 5 9 10 11 6 4 13 17 10 7 8 8 9 11 13 13 10 10 11 12 14 13 10 11 11 8 8 11 11 7 8 12 4 -2 6 8 6 8 7 6 6 3 4 6 6 8 7 7 11 10 8 6 5 4 4 4 5 6 8 9 10 12 11 11 11 11 10 9 8 8 7 7 6 6 6 6 6
10 14 9 7 14 13 8 7 5 5 6 7 8 5 6 7 7 10 11 12 15 16 17 9 -7 1 12 5 3 8 9 9 10 12 15 14 11 9 9 10 12 12 13 13 9 6 5 3 5 9 8 7 4 2 5 2 3 9 6 2 3 3 4 5 8 10 5 5 9 8 7 8 6 6 6 5 3 3 4 6 7 8 9 9 9 9 9 8 8 8 8 9 8 8 8 8 9
1 3 2 6 9 6 9 13 12 12 8 6 8 9 9 4 0 3 6 10 6 -0 11 5 -12 5 16 0 3 11 7 11 15 17 17 13 12 12 10 11 11 11 14 14 10 7 6 5 3 2 4 3 2 8 12 3 1 7 5 2 3 4 1 2 8 8 1 2 8 7 6 8 9 9 7 4 2 2 3 4 5 5 6 7 6 4 4 3 4 4 4 4 4 4 4 4 5
Height
5828 5828 5829 5829 5830 5831 5831 5832 5833 5833 5834 5835 5837 5840 5840 5842 5845 5844 5842 5838 5840 5842 5836 5836 5840 5843 5844 5842 5840 5840 5842 5842 5842 5841 5837 5834 5834 5837 5840 5840 5840 5840 5840 5840 5840 5840 5840 5840 5840 5841 5841 5840 5840 5839 5839 5839 5839 5839 5838 5838 5838 5838 5837 5837 5837 5837 5837 5836 5836 5835 5835 5834 5834 5833 5833 5833 5833 5833 5832 5832 5832 5833 5834 5834 5835 5835 5836 5836 5836 5836 5837 5837 5838 5838 5838 5838 5838
5824 5825 5825 5826 5827 5827 5828 5829 5830 5829 5831 5833 5836 5838 5840 5841 5841 5840 5839 5840 5838 5831 5830 5837 5840 5840 5841 5840 5839 5839 5839 5838 5838 5837 5836 5834 5835 5837 5837 5838 5838 5838 5839 5838 5838 5838 5838 5838 5839 5839 5839 5838 5838 5838 5837 5837 5837 5837 5837 5837 5836 5836 5836 5835 5835 5835 5835 5835 5835 5834 5833 5833 5832 5832 5832 5832 5831 5831 5831 5831 5831 5832 5832 5833 5834 5834 5835 5835 5836 5836 5836 5837 5837 5837 5838 5838 5838
5821 5821 5822 5822 5823 5824 5825 5826 5827 5827 5828 5831 5835 5837 5839 5840 5840 5838 5836 5836 5829 5822 5829 5837 5837 5837 5838 5838 5836 5834 5834 5836 5836 5834 5834 5834 5834 5835 5835 5836 5836 5836 5837 5836 5836 5836 5836 5836 5837 5837 5837 5837 5836 5836 5835 5835 5835 5835 5835 5835 5835 5834 5834 5833 5833 5833 5833 5833 5833 5832 5832 5831 5831 5831 5830 5830 5830 5830 5830 5830 5830 5830 5831 5832 5832 5834 5834 5835 5835 5835 5836 5836 5837 5837 5837 5837 5838
5818 5818 5819 5819 5820 5821 5821 5822 5824 5825 5826 5829 5834 5838 5839 5840 5840 5835 5830 5827 5820 5822 5832 5834 5833 5834 5835 5834 5831 5831 5833 5835 5833 5831 5831 5832 5832 5832 5833 5834 5834 5834 5834 5834 5834 5834 5834 5835 5835 5835 5835 5835 5835 5834 5834 5833 5833 5833 5833 5833 5833 5832 5832 5832 5832 5832 5832 5831 5831 5831 5830 5830 5830 5829 5829 5829 5829 5829 5829 5829 5829 5829 5830 5830 5831 5832 5833 5834 5834 5835 5835 5836 5836 5837 5837 5837 5837
5815 5816 5816 5817 5817 5817 5819 5820 5821 5822 5824 5828 5832 5837 5837 5836 5835 5829 5823 5820 5817 5824 5831 5830 5830 5829 5832 5832 5829 5831 5831 5831 5830 5829 5830 5830 5830 5829 5831 5832 5831 5831 5831 5832 5832 5832 5832 5833 5833 5833 5833 5833 5833 5833 5832 5832 5832 5832 5832 5831 5831 5831 5830 5830 5830 5830 5830 5829 5829 5829 5829 5829 5828 5828 5828 5827 5827 5827 5828 5828 5828 5828 5828 5829 5830 5831 5832 5833 5833 5834 5834 5835 5835 5836 5836 5836 5837
5812 5813 5813 5814 5814 5815 5817 5817 5818 5820 5823 5827 5829 5832 5833 5831 5829 5823 5820 5818 5817 5824 5828 5828 5827 5826 5828 5829 5827 5829 5828 5828 5827 5828 5829 5828 5827 5827 5828 5829 5829 5829 5829 5829 5830 5830 5830 5830 5831 5831 5831 5831 5831 5831 5830 5830 5830 5830 5830 5830 5829 5829 5829 5829 5829 5828 5828 5828 5828 5828 5827 5827 5827 5827 5827 5826 5826 5826 5826 5827 5827 5827 5827 5828 5829 5829 5830 5831 5832 5833 5833 5834 5834 5834 5835 5836 5836
5810 5810 5811 5811 5812 5812 5814 5814 5816 5818 5821 5824 5827 5830 5829 5825 5820 5820 5820 5818 5819 5822 5824 5823 5824 5824 5825 5825 5825 5826 5826 5826 5825 5826 5826 5825 5825 5825 5825 5826 5826 5827 5827 5827 5828 5828 5828 5828 5828 5829 5828 5829 5828 5829 5829 5828 5828 5828 5828 5828 5828 5827 5827 5827 5827 5827 5827 5827 5826 5826 5826 5826 5826 5825 5825 5825 5825 5825 5825 5826 5826 5826 5826 5827 5827 5828 5829 5830 5831 5832 5832 5832 5832 5833 5834 5835 5835
5807 5808 5808 5809 5809 5810 5811 5812 5813 5816 5818 5820 5825 5826 5821 5817 5813 5815 5819 5819 5819 5819 5819 5820 5822 5822 5822 5821 5822 5823 5823 5823 5822 5823 5823 5822 5822 5822 5822 5823 5824 5825 5826 5825 5826 5826 5825 5826 5826 5826 5826 5826 5826 5826 5826 5826 5826 5826 5826 5826 5826 5826 5825 5825 5825 5825 5825 5825 5825 5825 5825 5824 5824 5824 5824 5824 5824 5824 5824 5824 5825 5825 5825 5825 5826 5827 5828 5829 5830 5831 5831 5831 5831 5832 5833 5834 5834
5805 5805 5805 5806 5806 5807 5808 5810 5811 5813 5816 5817 5821 5821 5816 5815 5811 5811 5817 5818 5817 5818 5817 5818 5821 5819 5818 5819 5819 5820 5821 5821 5819 5819 5819 5819 5819 5818 5819 5821 5822 5823 5824 5823 5823 5823 5823 5824 5824 5824 5824 5824 5824 5824 5824 5824 5824 5824 5824 5824 5824 5824 5823 5823 5823 5823 5823 5823 5823 5823 5823 5823 5823 5823 5823 5823 5823 5823 5823 5823 5823 5823 5824 5824 5825 5825 5826 5827 5828 5830 5830 5830 5830 5830 5832 5833 5833
5802 5802 5803 5803 5804 5805 5805 5808 5809 5811 5815 5816 5819 5818 5813 5811 5808 5810 5814 5817 5816 5816 5815 5814 5818 5816 5815 5816 5816 5818 5820 5820 5816 5814 5816 5816 5816 5816 5817 5818 5819 5821 5821 5820 5820 5821 5821 5821 5821 5822 5821 5821 5821 5822 5822 5822 5822 5822 5822 5822 5822 5822 5822 5821 5821 5821 5821 5821 5821 5821 5821 5821 5821 5821 5821 5821 5822 5822 5821 5821 5821 5822 5822 5823 5823 5823 5824 5825 5827 5828 5829 5829 5829 5829 5830 5831 5832
5799 5800 5800 5801 5802 5803 5804 5806 5808 5811 5814 5816 5816 5813 5808 5804 5806 5810 5812 5815 5816 5814 5812 5811 5815 5813 5812 5814 5814 5816 5818 5818 5815 5811 5812 5813 5813 5814 5815 5816 5816 5817 5817 5817 5818 5818 5818 5819 5819 5819 5819 5819 5819 5820 5820 5820 5819 5820 5820 5820 5820 5820 5820 5820 5819 5819 5819 5819 5819 5819 5819 5819 5819 5819 5819 5820 5820 5820 5820 5820 5820 5820 5821 5821 5822 5822 5823 5823 5824 5826 5827 5828 5828 5828 5828 5830 5831
5796 5797 5798 5799 5800 5801 5803 5804 5807 5810 5813 5817 5814 5808 5807 5802 5802 5808 5810 5813 5813 5811 5810 5807 5811 5811 5811 5813 5812 5815 5816 5816 5817 5813 5810 5808 5808 5810 5812 5813 5813 5814 5814 5814 5815 5815 5816 5816 5817 5817 5817 5817 5817 5818 5818 5817 5817 5817 5818 5818 5818 5818 5818 5818 5818 5817 5817 5817 5816 5816 5816 5817 5817 5817 5818 5818 5819 5819 5819 5819 5819 5819 5819 5820 5820 5821 5821 5822 5822 5824 5825 5826 5827 5827 5827 5828 5830
5794 5795 5795 5796 5797 5799 5800 5802 5806 5808 5811 5815 5809 5803 5804 5801 5799 5805 5807 5808 5809 5809 5809 5804 5807 5809 5809 5811 5811 5814 5814 5814 5817 5816 5814 5807 5803 5806 5810 5810 5811 5812 5811 5811 5812 5813 5814 5815 5815 5815 5815 5814 5815 5815 5815 5815 5815 5816 5816 5816 5816 5817 5816 5816 5815 5815 5815 5814 5814 5814 5814 5815 5815 5815 5816 5817 5817 5817 5817 5817 5817 5818 5818 5818 5819 5819 5820 5820 5821 5822 5823 5824 5825 5825 5826 5827 5828
5792 5793 5793 5793 5795 5797 5798 5800 5804 5805 5809 5809 5804 5803 5802 5798 5797 5801 5803 5805 5806 5808 5810 5804 5802 5806 5806 5808 5809 5811 5812 5812 5813 5815 5817 5810 5802 5804 5807 5808 5808 5809 5809 5808 5809 5810 5811 5812 5812 5812 5812 5812 5812 5813 5813 5813 5813 5814 5814 5814 5814 5815 5814 5813 5813 5813 5812 5812 5812 5812 5812 5813 5814 5814 5814 5815 5815 5816 5816 5816 5816 5816 5816 5816 5817 5817 5818 5819 5819 5820 5821 5823 5823 5824 5824 5825 5826
5790 5790 5790 5791 5792 5794 5796 5798 5801 5802 5806 5804 5802 5803 5798 5794 5793 5797 5802 5803 5804 5805 5809 5803 5798 5802 5804 5805 5806 5808 5809 5809 5810 5811 5812 5809 5805 5804 5806 5806 5805 5806 5805 5804 5805 5807 5809 5809 5809 5809 5809 5810 5811 5811 5811 5811 5811 5811 5811 5812 5812 5813 5812 5811 5811 5811 5810 5810 5811 5811 5811 5811 5811 5812 5812 5813 5813 5814 5814 5814 5814 5814 5815 5815 5815 5815 5816 5817 5818 5818 5819 5821 5822 5822 5823 5823 5824
5788 5788 5788 5789 5790 5793 5794 5797 5799 5801 5804 5799 5799 5801 5794 5791 5790 5795 5800 5800 5801 5803 5805 5800 5797 5800 5802 5803 5803 5804 5805 5806 5808 5807 5807 5806 5805 5803 5804 5804 5803 5802 5801 5800 5802 5805 5806 5806 5806 5806 5807 5808 5809 5809 5809 5809 5809 5809 5809 5810 5810 5810 5810 5809 5809 5809 5808 5809 5809 5809 5809 5809 5809 5810 5811 5811 5811 5812 5812 5813 5813 5813 5813 5813 5813 5814 5814 5815 5816 5817 5818 5819 5820 5821 5822 5822 5823
5786 5786 5786 5788 5789 5791 5793 5795 5799 5800 5802 5798 5797 5796 5791 5790 5790 5794 5797 5797 5800 5801 5802 5798 5795 5797 5799 5800 5801 5802 5803 5804 5806 5804 5803 5803 5802 5802 5802 5804 5803 5799 5797 5799 5800 5802 5803 5803 5804 5804 5805 5806 5806 5806 5807 5807 5807 5808 5808 5808 5808 5808 5808 5808 5807 5807 5806 5806 5807 5807 5807 5807 5808 5808 5809 5809 5810 5810 5811 5811 5811 5811 5811 5812 5812 5812 5813 5814 5814 5815 5816 5817 5818 5819 5820 5821 5821
5784 5784 5785 5786 5787 5790 5791 5795 5798 5796 5799 5798 5791 5786 5786 5791 5793 5792 5792 5795 5798 5799 5799 5794 5792 5796 5797 5798 5800 5801 5800 5801 5803 5802 5800 5799 5800 5800 5799 5800 5802 5799 5797 5799 5799 5799 5799 5800 5802 5802 5803 5804 5804 5805 5805 5806 5806 5806 5806 5806 5806 5806 5806 5806 5806 5805 5804 5805 5805 5805 5806 5806 5806 5807 5807 5808 5808 5809 5809 5809 5810 5810 5810 5810 5811 5811 5812 5812 5813 5814 5815 5816 5817 5818 5819 5819 5820
5782 5782 5783 5784 5786 5788 5790 5795 5798 5791 5791 5791 5784 5781 5784 5791 5793 5790 5789 5794 5795 5796 5796 5791 5789 5793 5794 5796 5797 5797 5798 5799 5800 5800 5798 5797 5797 5797 5796 5797 5800 5798 5795 5797 5797 5798 5799 5799 5800 5800 5801 5802 5802 5803 5803 5803 5803 5803 5804 5804 5804 5805 5804 5804 5804 5803 5803 5804 5803 5804 5804 5804 5804 5805 5805 5805 5806 5807 5807 5808 5808 5808 5809 5809 5809 5810 5811 5811 5812 5813 5813 5814 5815 5816 5817 5817 5818
5780 5780 5781 5783 5785 5787 5789 5792 5790 5784 5784 5785 5783 5782 5785 5790 5789 5787 5788 5792 5793 5793 5794 5790 5787 5790 5792 5793 5793 5794 5795 5796 5797 5797 5795 5795 5794 5793 5793 5794 5796 5795 5792 5793 5795 5796 5798 5798 5798 5798 5799 5800 5800 5800 5800 5800 5800 5801 5801 5802 5802 5803 5802 5802 5802 5802 5801 5802 5802 5802 5802 5802 5803 5803 5803 5804 5804 5805 5806 5806 5806 5807 5807 5808 5809 5809 5809 5810 5811 5812 5812 5813 5814 5814 5815 5815 5816
5779 5778 5780 5782 5783 5784 5786 5784 5779 5778 5781 5783 5784 5783 5786 5788 5784 5785 5789 5789 5791 5792 5793 5791 5785 5786 5790 5790 5789 5791 5793 5794 5795 5794 5794 5794 5791 5789 5790 5790 5792 5792 5791 5791 5792 5793 5795 5795 5796 5796 5796 5797 5798 5798 5798 5798 5798 5798 5799 5799 5800 5800 5800 5800 5800 5799 5799 5799 5799 5800 5800 5800 5800 5801 5801 5802 5803 5804 5804 5804 5805 5805 5806 5807 5808 5808 5808 5810 5810 5811 5811 5812 5812 5813 5813 5814 5815
5776 5777 5778 5780 5779 5778 5780 5777 5773 5776 5780 5782 5784 5783 5785 5785 5782 5786 5787 5787 5789 5789 5790 5791 5785 5782 5785 5786 5787 5789 5791 5792 5792 5792 5794 5793 5789 5787 5787 5787 5788 5789 5790 5790 5790 5791 5792 5793 5794 5794 5794 5794 5794 5795 5795 5795 5796 5796 5796 5797 5797 5798 5798 5797 5797 5798 5797 5797 5797 5798 5797 5798 5798 5799 5800 5801 5802 5802 5802 5803 5804 5804 5805 5805 5806 5807 5808 5809 5809 5809 5810 5810 5811 5812 5812 5812 5813
5773 5774 5776 5777 5776 5774 5776 5776 5773 5775 5779 5781 5782 5782 5782 5782 5783 5784 5783 5785 5785 5783 5785 5787 5783 5778 5780 5785 5786 5787 5789 5789 5789 5790 5792 5791 5788 5786 5784 5783 5786 5788 5789 5789 5788 5789 5791 5791 5791 5792 5792 5792 5792 5792 5793 5793 5794 5794 5794 5794 5795 5795 5795 5796 5795 5796 5795 5794 5795 5796 5795 5795 5796 5797 5798 5799 5800 5800 5801 5802 5803 5803 5803 5804 5804 5805 5806 5807 5807 5807 5808 5808 5809 5810 5810 5810 5811
5771 5772 5773 5774 5774 5773 5773 5773 5773 5774 5777 5778 5779 5779 5780 5781 5783 5781 5780 5783 5780 5779 5783 5783 5780 5777 5780 5785 5784 5785 5786 5786 5787 5787 5788 5788 5787 5788 5783 5780 5784 5787 5787 5789 5788 5787 5788 5788 5789 5790 5789 5790 5790 5790 5791 5791 5791 5792 5792 5792 5792 5793 5793 5793 5793 5793 5792 5792 5793 5792 5793 5794 5795 5796 5797 5797 5797 5797 5798 5800 5801 5802 5802 5803 5803 5804 5804 5805 5805 5805 5806 5807 5807 5808 5808 5809 5809
5769 5770 5770 5770 5771 5771 5771 5771 5772 5773 5774 5776 5777 5778 5779 5779 5780 5779 5779 5779 5776 5777 5780 5779 5778 5779 5780 5782 5782 5783 5784 5784 5786 5785 5785 5785 5786 5787 5780 5775 5781 5784 5786 5787 5787 5787 5786 5785 5786 5787 5787 5787 5787 5787 5788 5788 5788 5789 5789 5790 5790 5790 5791 5791 5791 5790 5790 5790 5791 5791 5791 5793 5793 5795 5795 5795 5794 5795 5795 5797 5799 5800 5801 5801 5802 5803 5803 5803 5804 5804 5804 5805 5806 5806 5806 5807 5807
5766 5767 5767 5768 5769 5769 5770 5770 5771 5771 5772 5774 5775 5776 5777 5777 5778 5778 5777 5775 5775 5776 5775 5776 5777 5778 5778 5779 5780 5781 5781 5782 5783 5782 5780 5781 5783 5782 5773 5772 5779 5782 5784 5786 5786 5786 5785 5784 5783 5783 5783 5783 5783 5784 5785 5784 5785 5786 5786 5787 5787 5788 5789 5789 5788 5788 5787 5788 5790 5790 5790 5791 5792 5792 5792 5792 5792 5793 5793 5795 5797 5798 5799 5799 5800 5801 5802 5803 5803 5803 5803 5803 5803 5804 5804 5804 5805
5762 5764 5766 5766 5767 5767 5768 5769 5769 5769 5771 5772 5773 5775 5775 5775 5776 5777 5774 5773 5776 5774 5771 5774 5775 5775 5777 5777 5778 5778 5778 5779 5779 5778 5775 5776 5780 5775 5767 5771 5778 5781 5783 5784 5784 5785 5784 5784 5782 5781 5781 5780 5781 5782 5783 5783 5783 5783 5783 5784 5785 5785 5785 5786 5786 5785 5785 5786 5787 5788 5789 5789 5790 5790 5790 5790 5791 5792 5793 5795 5795 5796 5797 5798 5799 5800 5801 5802 5802 5801 5801 5801 5801 5801 5801 5801 5802
5760 5762 5764 5764 5765 5765 5767 5767 5767 5768 5769 5770 5771 5772 5772 5773 5775 5774 5771 5772 5776 5771 5767 5772 5773 5773 5775 5775 5775 5775 5775 5775 5776 5775 5772 5774 5776 5770 5767 5773 5777 5779 5781 5782 5783 5783 5783 5783 5782 5781 5780 5779 5779 5779 5781 5783 5782 5782 5782 5782 5783 5783 5783 5784 5784 5784 5784 5784 5786 5787 5788 5788 5788 5789 5790 5790 5791 5791 5793 5793 5792 5793 5795 5796 5797 5798 5799 5799 5799 5799 5798 5798 5798 5798 5799 5799 5800
5758 5761 5762 5762 5763 5763 5765 5765 5766 5767 5767 5767 5770 5770 5770 5772 5773 5771 5768 5771 5774 5769 5767 5770 5768 5770 5772 5772 5773 5773 5773 5772 5771 5771 5771 5773 5773 5771 5773 5775 5776 5777 5779 5780 5781 5782 5782 5782 5781 5780 5779 5779 5778 5778 5779 5779 5780 5781 5781 5782 5781 5780 5781 5782 5783 5784 5783 5783 5784 5785 5786 5786 5786 5788 5788 5787 5788 5790 5790 5790 5789 5790 5792 5793 5794 5795 5795 5796 5796 5796 5796 5796 5795 5795 5796 5797 5798
5758 5759 5760 5760 5761 5762 5763 5763 5764 5765 5765 5764 5767 5769 5769 5771 5770 5767 5767 5770 5772 5767 5766 5768 5766 5767 5769 5769 5771 5772 5772 5771 5769 5769 5772 5773 5773 5774 5776 5775 5776 5777 5778 5779 5779 5780 5780 5780 5779 5779 5779 5779 5778 5777 5778 5777 5778 5778 5779 5780 5779 5778 5778 5779 5781 5782 5782 5782 5782 5782 5783 5784 5785 5785 5784 5783 5785 5787 5788 5788 5787 5787 5788 5789 5790 5791 5792 5792 5793 5793 5793 5793 5793 5793 5794 5795 5796
5756 5757 5758 5759 5760 5761 5760 5759 5762 5764 5762 5760 5765 5768 5768 5771 5768 5763 5765 5769 5770 5767 5763 5764 5765 5765 5764 5766 5768 5769 5771 5770 5769 5770 5771 5772 5773 5775 5775 5775 5775 5776 5777 5777 5777 5778 5778 5778 5778 5778 5778 5778 5778 5777 5777 5777 5777 5778 5778 5778 5778 5777 5775 5776 5777 5776 5778 5779 5779 5780 5781 5782 5784 5784 5783 5784 5784 5785 5786 5787 5786 5786 5785 5786 5787 5788 5789 5790 5790 5791 5791 5791 5791 5791 5792 5793 5794
5755 5755 5757 5757 5760 5761 5757 5756 5760 5763 5760 5758 5764 5767 5767 5772 5767 5761 5764 5766 5768 5766 5762 5761 5764 5764 5763 5764 5764 5766 5769 5770 5770 5771 5771 5772 5772 5773 5773 5773 5774 5774 5775 5775 5776 5776 5775 5776 5776 5776 5777 5777 5777 5777 5777 5777 5777 5777 5777 5777 5777 5777 5776 5775 5774 5773 5774 5776 5776 5777 5777 5778 5780 5782 5783 5784 5784 5784 5785 5786 5786 5785 5785 5785 5786 5786 5787 5788 5788 5788 5789 5788 5788 5789 5790 5790 5791
5753 5754 5755 5757 5760 5762 5758 5756 5758 5761 5759 5756 5760 5765 5768 5771 5765 5758 5761 5764 5766 5766 5761 5759 5761 5764 5764 5764 5764 5765 5767 5769 5771 5771 5771 5772 5771 5771 5771 5771 5771 5772 5772 5773 5773 5774 5773 5774 5774 5774 5774 5775 5775 5775 5776 5776 5776 5776 5776 5776 5776 5776 5776 5776 5774 5773 5773 5773 5774 5774 5774 5774 5776 5778 5780 5781 5782 5783 5784 5784 5784 5784 5785 5785 5785 5785 5786 5786 5786 5786 5786 5786 5786 5787 5787 5788 5789
5754 5754 5755 5756 5760 5762 5761 5757 5756 5758 5759 5757 5757 5762 5766 5767 5762 5758 5759 5762 5764 5764 5762 5757 5758 5761 5762 5764 5765 5765 5766 5767 5768 5769 5770 5770 5770 5770 5769 5769 5769 5769 5770 5770 5771 5771 5771 5771 5771 5772 5772 5773 5773 5773 5774 5774 5774 5774 5774 5775 5775 5775 5775 5775 5775 5775 5774 5774 5774 5774 5774 5774 5775 5777 5778 5780 5781 5781 5782 5783 5783 5782 5783 5784 5784 5784 5784 5784 5783 5782 5783 5784 5785 5785 5786 5786 5786
5753 5754 5755 5757 5759 5762 5763 5761 5756 5755 5758 5758 5757 5760 5763 5763 5760 5758 5758 5760 5761 5763 5762 5757 5755 5757 5760 5763 5764 5764 5765 5765 5765 5766 5767 5767 5767 5767 5767 5767 5767 5767 5768 5768 5769 5770 5769 5769 5769 5770 5771 5771 5772 5772 5772 5772 5772 5772 5773 5773 5773 5774 5774 5774 5774 5774 5774 5774 5774 5774 5774 5775 5776 5777 5778 5779 5779 5780 5780 5781 5782 5782 5782 5783 5783 5783 5782 5782 5780 5779 5781 5783 5784 5784 5784 5784 5784
5750 5752 5754 5756 5758 5759 5761 5761 5755 5754 5755 5756 5757 5759 5761 5761 5761 5759 5757 5757 5759 5760 5760 5757 5755 5754 5755 5758 5760 5761 5762 5762 5762 5763 5764 5764 5764 5764 5764 5765 5765 5765 5766 5767 5768 5768 5767 5767 5767 5768 5769 5769 5770 5770 5770 5770 5770 5770 5770 5771 5771 5772 5772 5772 5772 5773 5773 5772 5773 5773 5774 5774 5775 5775 5776 5777 5778 5779 5779 5779 5781 5781 5781 5781 5781 5781 5780 5779 5778 5777 5780 5782 5782 5782 5782 5782 5782
5748 5749 5752 5754 5755 5757 5759 5757 5753 5752 5754 5756 5756 5759 5762 5762 5761 5761 5759 5756 5756 5757 5758 5757 5756 5754 5752 5751 5753 5756 5757 5758 5760 5761 5762 5762 5762 5762 5762 5763 5763 5764 5765 5766 5766 5765 5764 5764 5764 5765 5767 5768 5768 5768 5768 5769 5769 5769 5768 5769 5769 5769 5770 5769 5770 5770 5771 5771 5771 5772 5772 5773 5774 5774 5775 5775 5776 5777 5777 5778 5779 5779 5779 5779 5779 5778 5778 5778 5776 5776 5778 5779 5779 5780 5780 5780 5781
5746 5747 5748 5750 5752 5756 5758 5754 5751 5750 5752 5754 5755 5756 5760 5760 5760 5760 5759 5756 5753 5754 5756 5757 5757 5756 5754 5751 5750 5752 5754 5756 5757 5759 5760 5760 5760 5761 5761 5761 5761 5762 5763 5764 5763 5762 5761 5761 5762 5763 5764 5765 5766 5766 5766 5767 5768 5768 5767 5766 5767 5767 5767 5767 5767 5768 5769 5769 5769 5770 5770 5771 5772 5772 5773 5773 5774 5775 5775 5776 5776 5776 5777 5777 5777 5776 5776 5776 5775 5775 5775 5776 5776 5777 5778 5778 5778
5745 5745 5746 5748 5749 5754 5755 5751 5750 5748 5748 5752 5752 5753 5757 5758 5758 5758 5756 5754 5752 5752 5754 5756 5756 5757 5757 5753 5751 5750 5751 5753 5755 5757 5758 5758 5758 5759 5759 5759 5758 5759 5761 5761 5761 5758 5758 5758 5759 5760 5761 5762 5763 5763 5764 5765 5765 5766 5765 5765 5765 5765 5765 5765 5765 5766 5766 5766 5767 5768 5768 5769 5770 5770 5771 5772 5772 5773 5773 5773 5774 5774 5774 5774 5774 5774 5773 5773 5773 5773 5773 5773 5774 5774 5775 5776 5776
5743 5743 5745 5746 5747 5752 5753 5750 5749 5748 5746 5748 5749 5750 5752 5753 5754 5753 5752 5752 5751 5751 5752 5753 5754 5755 5755 5754 5750 5749 5750 5751 5753 5755 5756 5756 5757 5756 5756 5756 5756 5757 5758 5758 5757 5755 5755 5755 5756 5757 5758 5759 5760 5761 5762 5762 5763 5763 5763 5762 5762 5763 5763 5763 5763 5763 5764 5764 5765 5765 5766 5767 5767 5768 5769 5769 5770 5770 5771 5771 5771 5772 5772 5772 5772 5771 5771 5771 5771 5771 5771 5771 5772 5771 5772 5773 5774
5741 5742 5743 5744 5745 5750 5752 5747 5745 5746 5745 5746 5748 5747 5748 5749 5749 5750 5751 5750 5749 5749 5749 5749 5751 5752 5753 5753 5750 5748 5748 5749 5750 5753 5754 5753 5754 5754 5753 5754 5754 5755 5756 5754 5751 5750 5751 5752 5754 5755 5756 5757 5757 5759 5759 5760 5760 5761 5760 5760 5760 5760 5760 5761 5761 5761 5762 5762 5762 5763 5764 5764 5765 5765 5766 5767 5767 5768 5768 5769 5769 5769 5769 5769 5769 5768 5768 5768 5769 5769 5769 5769 5769 5769 5769 5769 5771
5739 5740 5741 5741 5742 5745 5747 5743 5741 5743 5745 5745 5745 5745 5746 5746 5747 5748 5750 5747 5746 5747 5747 5746 5749 5749 5750 5751 5750 5746 5746 5746 5747 5748 5750 5751 5752 5753 5752 5751 5752 5753 5754 5753 5748 5746 5748 5750 5752 5753 5754 5754 5755 5756 5757 5757 5757 5758 5758 5757 5757 5757 5758 5758 5759 5759 5759 5760 5760 5761 5761 5762 5762 5763 5763 5764 5764 5764 5765 5766 5766 5766 5766 5766 5766 5766 5765 5765 5766 5766 5766 5766 5767 5767 5767 5767 5767
5737 5737 5738 5739 5739 5740 5740 5740 5739 5741 5743 5743 5742 5742 5744 5745 5745 5747 5747 5746 5743 5743 5744 5745 5746 5747 5747 5748 5748 5746 5743 5743 5744 5745 5747 5749 5750 5751 5750 5750 5751 5751 5752 5751 5746 5744 5746 5748 5749 5751 5752 5752 5752 5753 5754 5754 5755 5755 5755 5755 5755 5755 5755 5756 5756 5757 5757 5758 5758 5758 5759 5759 5760 5760 5761 5761 5761 5762 5762 5762 5763 5763 5763 5763 5763 5763 5763 5763 5763 5763 5764 5764 5765 5765 5765 5764 5764
5734 5735 5735 5736 5737 5737 5738 5738 5738 5739 5741 5740 5739 5740 5741 5742 5744 5745 5745 5745 5742 5741 5742 5743 5744 5744 5745 5746 5746 5745 5743 5740 5741 5742 5744 5746 5747 5748 5748 5748 5749 5749 5749 5748 5744 5742 5745 5747 5747 5749 5750 5750 5750 5750 5751 5752 5752 5752 5753 5753 5753 5753 5753 5753 5754 5754 5755 5755 5756 5756 5757 5757 5757 5758 5758 5758 5759 5759 5759 5759 5759 5760 5760 5760 5760 5761 5761 5760 5760 5761 5761 5761 5762 5762 5763 5762 5761
5731 5732 5733 5733 5734 5735 5736 5736 5737 5737 5738 5737 5738 5738 5738 5739 5741 5742 5742 5741 5740 5740 5740 5741 5742 5742 5742 5743 5742 5742 5741 5739 5738 5739 5739 5739 5742 5744 5745 5745 5745 5745 5744 5742 5739 5741 5743 5744 5745 5746 5747 5748 5747 5747 5748 5749 5749 5749 5750 5751 5751 5751 5750 5751 5751 5752 5752 5752 5753 5753 5754 5755 5755 5755 5756 5756 5756 5756 5756 5756 5756 5756 5757 5757 5757 5757 5758 5758 5758 5758 5758 5758 5759 5760 5760 5760 5759
5728 5729 5730 5731 5732 5733 5734 5734 5734 5734 5733 5734 5736 5736 5736 5736 5738 5739 5738 5737 5738 5739 5738 5738 5740 5740 5739 5739 5739 5740 5739 5738 5738 5737 5737 5738 5739 5739 5740 5740 5741 5742 5740 5737 5736 5739 5741 5742 5743 5743 5744 5745 5745 5744 5745 5746 5746 5747 5747 5748 5748 5748 5748 5749 5749 5749 5749 5750 5750 5751 5751 5751 5752 5752 5753 5753 5753 5753 5754 5753 5754 5753 5753 5754 5754 5754 5754 5754 5755 5755 5755 5755 5756 5757 5757 5757 5757
5726 5727 5728 5729 5730 5731 5731 5730 5731 5731 5730 5731 5734 5734 5734 5733 5734 5737 5736 5734 5735 5736 5736 5735 5736 5736 5735 5736 5738 5738 5737 5736 5737 5736 5737 5739 5739 5738 5738 5737 5738 5739 5737 5735 5736 5737 5738 5739 5740 5740 5741 5742 5742 5742 5742 5743 5744 5744 5744 5745 5746 5746 5746 5746 5747 5747 5747 5747 5748 5748 5748 5749 5749 5750 5750 5750 5751 5751 5751 5751 5751 5751 5751 5751 5751 5751 5751 5751 5752 5752 5752 5753 5753 5753 5754 5754 5755
5724 5725 5726 5727 5728 5728 5727 5727 5728 5728 5728 5730 5732 5731 5731 5730 5731 5733 5732 5731 5731 5733 5733 5732 5732 5732 5733 5735 5736 5735 5734 5735 5735 5734 5735 5737 5737 5737 5737 5736 5736 5736 5736 5736 5736 5736 5735 5736 5737 5737 5737 5738 5739 5739 5739 5740 5741 5742 5742 5742 5743 5744 5744 5744 5745 5745 5745 5745 5745 5745 5746 5746 5747 5747 5748 5748 5748 5748 5748 5748 5748 5748 5748 5748 5748 5748 5748 5749 5749 5749 5750 5750 5750 5751 5751 5752 5752
5722 5723 5723 5724 5724 5724 5724 5725 5725 5725 5726 5728 5728 5728 5727 5727 5728 5730 5729 5728 5729 5730 5730 5729 5729 5731 5732 5733 5733 5731 5732 5732 5732 5733 5733 5733 5734 5734 5734 5734 5733 5734 5735 5736 5735 5735 5734 5734 5733 5732 5733 5734 5736 5737 5737 5738 5739 5739 5739 5740 5741 5741 5742 5742 5742 5743 5743 5743 5743 5743 5743 5744 5744 5745 5745 5746 5746 5746 5746 5746 5746 5746 5746 5746 5746 5746 5746 5746 5746 5747 5747 5748 5748 5748 5749 5749 5749
5719 5720 5721 5721 5721 5721 5721 5722 5723 5723 5724 5725 5725 5724 5725 5725 5726 5727 5725 5725 5726 5727 5728 5726 5726 5728 5729 5729 5729 5729 5730 5730 5730 5730 5730 5730 5731 5731 5732 5731 5731 5731 5732 5733 5734 5734 5733 5730 5729 5729 5729 5730 5732 5733 5734 5735 5736 5737 5737 5737 5738 5739 5739 5740 5740 5740 5740 5740 5741 5741 5741 5742 5742 5743 5743 5744 5744 5744 5744 5744 5745 5745 5744 5744 5744 5744 5744 5744 5744 5745 5745 5745 5746 5746 5747 5747 5747
5718 5718 5718 5718 5719 5719 5719 5720 5721 5721 5721 5721 5722 5722 5723 5724 5724 5723 5721 5722 5724 5724 5725 5724 5724 5725 5725 5725 5725 5726 5728 5727 5727 5727 5727 5727 5727 5728 5728 5729 5728 5727 5728 5730 5732 5732 5730 5729 5728 5729 5728 5727 5729 5731 5731 5732 5734 5734 5735 5735 5736 5736 5737 5738 5738 5738 5738 5738 5738 5738 5739 5739 5740 5740 5741 5741 5742 5742 5743 5743 5743 5743 5743 5743 5742 5742 5742 5742 5742 5743 5743 5743 5744 5744 5744 5745 5745
5716 5716 5716 5716 5716 5717 5717 5718 5718 5719 5718 5718 5720 5721 5721 5721 5721 5720 5719 5721 5721 5721 5722 5722 5721 5721 5721 5722 5722 5723 5724 5724 5723 5724 5724 5724 5724 5725 5725 5725 5725 5724 5725 5726 5727 5728 5728 5727 5727 5727 5727 5725 5726 5727 5728 5730 5731 5732 5732 5733 5733 5734 5734 5735 5736 5736 5736 5736 5736 5736 5736 5737 5737 5738 5739 5739 5740 5740 5741 5741 5741 5741 5741 5741 5741 5741 5741 5741 5741 5741 5741 5741 5742 5742 5742 5743 5743
5714 5714 5714 5714 5714 5715 5715 5715 5716 5716 5716 5717 5718 5719 5719 5719 5718 5717 5718 5719 5717 5717 5718 5719 5718 5718 5718 5718 5718 5719 5720 5720 5720 5721 5721 5721 5721 5722 5722 5722 5722 5722 5722 5723 5723 5724 5725 5725 5724 5724 5725 5724 5724 5724 5726 5727 5729 5729 5730 5730 5731 5731 5732 5733 5734 5734 5734 5734 5734 5734 5734 5734 5735 5735 5736 5737 5737 5738 5738 5739 5739 5739 5739 5739 5739 5739 5739 5739 5739 5740 5740 5740 5740 5740 5740 5741 5741
5712 5713 5713 5712 5712 5713 5713 5713 5714 5713 5714 5715 5716 5716 5716 5717 5716 5715 5715 5716 5714 5714 5715 5714 5714 5714 5714 5714 5715 5715 5716 5716 5717 5717 5717 5718 5718 5719 5719 5720 5720 5720 5720 5720 5720 5721 5721 5722 5722 5722 5721 5720 5719 5720 5723 5725 5726 5727 5727 5728 5728 5728 5729 5730 5731 5733 5733 5732 5732 5732 5732 5732 5733 5733 5734 5734 5735 5736 5736 5736 5737 5737 5737 5737 5737 5738 5738 5738 5738 5738 5739 5739 5739 5739 5739 5739 5739
5710 5710 5711 5711 5711 5711 5711 5711 5712 5711 5712 5713 5713 5714 5714 5715 5714 5712 5711 5712 5712 5711 5711 5710 5710 5710 5711 5712 5712 5712 5713 5713 5713 5714 5714 5714 5715 5715 5716 5717 5717 5717 5717 5717 5718 5718 5719 5719 5719 5719 5718 5717 5716 5716 5719 5721 5722 5723 5724 5725 5725 5725 5726 5727 5729 5731 5731 5731 5731 5730 5730 5730 5731 5731 5731 5732 5733 5733 5734 5734 5734 5734 5735 5735 5735 5735 5736 5736 5737 5737 5737 5737 5738 5738 5738 5738 5738
5708 5708 5708 5708 5708 5709 5709 5710 5710 5710 5710 5710 5711 5711 5712 5711 5710 5710 5709 5708 5710 5709 5708 5708 5707 5707 5708 5710 5709 5709 5710 5710 5710 5710 5711 5711 5711 5711 5712 5713 5714 5714 5714 5715 5715 5715 5716 5716 5716 5716 5717 5717 5716 5713 5714 5716 5718 5720 5721 5721 5722 5722 5723 5724 5726 5727 5728 5728 5728 5728 5728 5729 5729 5729 5729 5730 5730 5730 5731 5731 5732 5732 5732 5733 5733 5733 5734 5734 5734 5735 5735 5735 5735 5736 5736 5736 5736
5706 5707 5706 5706 5707 5707 5707 5707 5708 5708 5708 5708 5708 5708 5709 5708 5707 5707 5707 5706 5707 5707 5706 5705 5704 5704 5707 5707 5706 5706 5706 5706 5707 5707 5707 5708 5708 5708 5708 5709 5710 5711 5711 5712 5712 5712 5712 5713 5712 5713 5714 5715 5714 5712 5710 5712 5715 5716 5717 5718 5718 5719 5719 5721 5723 5723 5724 5725 5726 5726 5726 5726 5727 5727 5727 5727 5728 5728 5728 5729 5729 5730 5730 5731 5731 5731 5731 5732 5732 5732 5732 5733 5733 5733 5734 5734 5734
5703 5704 5704 5704 5705 5704 5703 5704 5705 5706 5705 5705 5705 5705 5706 5705 5705 5705 5704 5703 5703 5704 5704 5702 5699 5701 5704 5704 5703 5704 5703 5703 5703 5704 5704 5704 5705 5705 5705 5705 5706 5707 5708 5708 5708 5709 5709 5710 5710 5710 5711 5711 5712 5712 5711 5711 5712 5713 5714 5715 5715 5715 5716 5718 5719 5719 5720 5722 5723 5723 5723 5723 5724 5725 5725 5725 5726 5726 5726 5726 5727 5727 5728 5728 5729 5729 5729 5729 5729 5729 5730 5730 5730 5731 5731 5731 5732